This is the latest recevied weather packets stored in our database for station/object N3FWE. If no packets are shown the sender has not sent any weather packets the latest 10 day(s).
| Time | Temp. | Humidity | Pressure | Rain* | Wind** | Luminosity | Snow |
|---|---|---|---|---|---|---|---|
| 1777870814 | 5.56° C | 74% | 1015.2 hPa | 0 mm | - | - | - |
| 1777870213 | 5.56° C | 74% | 1015.2 hPa | 0 mm | - | - | - |
| 1777869615 | 5.56° C | 74% | 1015.3 hPa | 0 mm | - | - | - |
| 1777869015 | 5.56° C | 73% | 1015.3 hPa | 0 mm | - | - | - |
| 1777868415 | 6.11° C | 72% | 1015.4 hPa | 0 mm | - | - | - |
| 1777867815 | 6.11° C | 70% | 1015.3 hPa | 0 mm | - | - | - |
| 1777867218 | 6.11° C | 70% | 1015.5 hPa | 0 mm | - | - | - |
| 1777866615 | 6.67° C | 72% | 1015.5 hPa | 0 mm | - | - | - |
| 1777866016 | 6.67° C | 70% | 1015.2 hPa | 0 mm | - | - | - |
| 1777865415 | 6.67° C | 70% | 1015 hPa | 0 mm | - | - | - |
| 1777864815 | 6.67° C | 68% | 1015 hPa | 0 mm | - | - | - |
| 1777864215 | 7.22° C | 69% | 1015 hPa | 0 mm | - | - | - |
| 1777863616 | 7.22° C | 68% | 1015.1 hPa | 0 mm | - | - | - |
| 1777863015 | 7.22° C | 68% | 1015 hPa | 0 mm | - | - | - |
| 1777862415 | 7.78° C | 68% | 1015 hPa | 0 mm | - | - | - |
| 1777861815 | 7.78° C | 67% | 1015.1 hPa | 0 mm | - | - | - |
| 1777861214 | 8.33° C | 65% | 1014.9 hPa | 0 mm | - | - | - |
| 1777860614 | 8.33° C | 65% | 1014.9 hPa | 0 mm | - | - | - |
| 1777860015 | 8.89° C | 63% | 1015 hPa | 0 mm | - | - | - |
| 1777859414 | 9.44° C | 63% | 1014.9 hPa | 0 mm | - | - | - |
| 1777858814 | 10° C | 61% | 1014.8 hPa | 0 mm | - | - | - |
| 1777858214 | 10° C | 58% | 1014.7 hPa | 0 mm | - | - | - |
| 1777857615 | 10.56° C | 57% | 1014.7 hPa | 0 mm | - | - | - |
| 1777857015 | 11.11° C | 54% | 1014.6 hPa | 0 mm | - | - | - |
| 1777856414 | 11.67° C | 52% | 1014.4 hPa | 0 mm | - | - | - |
* Rain latest hour (hover to see other rain measurements)
** Current wind speed in m/s (hover to see current wind gust speed)